Weather History for Elizabethtown, NC

Change the Weather History Date:

Thursday, November 1, 2012

  Actual Average (KILM) Record (KILM)
Temperature  
Mean Temperature 46 °F 61 °F  
Max Temperature 60 °F 72 °F 85 °F (2004)
Min Temperature 33 °F 49 °F 32 °F (1878)
Degree Days  
Heating Degree Days 18 6  
Month to date heating degree days 6  
Since 1 July heating degree days 103  
Cooling Degree Days 0 1  
Month to date cooling degree days 1  
Year to date cooling degree days 2015  
Moisture  
Dew Point 35 °F    
Average Humidity 68    
Maximum Humidity 100    
Minimum Humidity 34    
Precipitation  
Precipitation 0.00 in 0.10 in 3.17 in (1969)
Month to date precipitation 0.10  
Year to date precipitation 50.80  
Sea Level Pressure  
Sea Level Pressure 29.81 in    
Wind  
Wind Speed 2 mph (WNW)    
Max Wind Speed 15 mph    
Max Gust Speed 20 mph    
Visibility 10 miles    
Events      
T = Trace of Precipitation, MM = Missing Value Source: NWS Daily Summary

Daily Weather History Graph

Daily Weather History Graph

Search for Another Location

Airport:

Trip Planner

Search our weather history database for the weather conditions in past years. The results will help you decide how hot, cold, wet, or windy it might be!

Date:

Astronomy

Nov. 01, 2012 Rise Set
Actual Time 7:35 AM EDT 6:20 PM EDT
Civil Twilight 7:09 AM EDT 6:46 PM EDT
Nautical Twilight 6:39 AM EDT 7:15 PM EDT
Astronomical Twilight 6:09 AM EDT 7:45 PM EDT
Moon 8:21 PM EDT (11/1) 10:01 AM EDT (11/1)
Length of Visible Light 11h 37m
Length of Day
10h 45m
Waning Gibbous, 93% of the Moon is Illuminated
Nov 1
Waning Gibbous
Nov 6
Last Quarter
Nov 13
New
Nov 20
First Quarter
Nov 28
Full

Hourly Weather History & Observations

Time (EDT) Temp. Windchill Dew Point Humidity Pressure Visibility Wind Dir Wind Speed Gust Speed Precip Events Conditions
12:15 AM 42.8 °F - 37.4 °F 81% 29.80 in 10.0 mi Calm Calm - N/A   Clear
12:35 AM 41.0 °F - 37.4 °F 87% 29.80 in 10.0 mi Calm Calm - N/A   Clear
12:55 AM 41.0 °F - 37.4 °F 87% 29.80 in 10.0 mi Calm Calm - N/A   Clear
1:15 AM 41.0 °F - 37.4 °F 87% 29.80 in 10.0 mi Calm Calm - N/A   Clear
1:35 AM 41.0 °F - 37.4 °F 87% 29.79 in 10.0 mi Calm Calm - N/A   Clear
1:55 AM 41.0 °F - 37.4 °F 87% 29.79 in 10.0 mi Calm Calm - N/A   Clear
2:35 AM 37.4 °F - 35.6 °F 93% 29.80 in 10.0 mi Calm Calm - N/A   Clear
2:55 AM 37.4 °F - 35.6 °F 93% 29.79 in 10.0 mi Calm Calm - N/A   Clear
3:15 AM 37.4 °F - 33.8 °F 87% 29.79 in 10.0 mi Calm Calm - N/A   Clear
3:35 AM 35.6 °F - 33.8 °F 93% 29.79 in 10.0 mi Calm Calm - N/A   Clear
3:55 AM 35.6 °F - 33.8 °F 93% 29.79 in 10.0 mi Calm Calm - N/A   Clear
4:15 AM 35.6 °F - 33.8 °F 93% 29.79 in 10.0 mi Calm Calm - N/A   Clear
4:35 AM 35.6 °F - 33.8 °F 93% 29.78 in 10.0 mi Calm Calm - N/A   Clear
4:55 AM 33.8 °F - 33.8 °F 100% 29.79 in 10.0 mi Calm Calm - N/A   Clear
5:35 AM 37.4 °F - 33.8 °F 87% 29.80 in 10.0 mi Calm Calm - N/A   Clear
5:55 AM 35.6 °F - 33.8 °F 93% 29.79 in 10.0 mi Calm Calm - N/A   Clear
6:35 AM 35.6 °F - 33.8 °F 93% 29.80 in 10.0 mi Calm Calm - N/A   Clear
6:55 AM 35.6 °F - 33.8 °F 93% 29.80 in 10.0 mi Calm Calm - N/A   Clear
7:15 AM 35.6 °F - 33.8 °F 93% 29.80 in 10.0 mi Calm Calm - N/A   Clear
7:55 AM 35.6 °F - 33.8 °F 93% 29.81 in 10.0 mi Calm Calm - N/A   Clear
8:15 AM 35.6 °F - 33.8 °F 93% 29.82 in 10.0 mi Calm Calm - N/A   Clear
8:35 AM 37.4 °F 34.9 °F 35.6 °F 93% 29.82 in 10.0 mi West 3.5 mph - N/A   Clear
9:15 AM 42.8 °F - 37.4 °F 81% 29.83 in 10.0 mi Calm Calm - N/A   Clear
9:35 AM 44.6 °F 43.1 °F 37.4 °F 76% 29.83 in 10.0 mi West 3.5 mph - N/A   Clear
9:55 AM 46.4 °F 43.5 °F 37.4 °F 71% 29.83 in 10.0 mi WSW 5.8 mph - N/A   Clear
10:15 AM 48.2 °F - 35.6 °F 62% 29.83 in 10.0 mi WNW 5.8 mph - N/A   Clear
10:35 AM 48.2 °F - 35.6 °F 62% 29.83 in 10.0 mi WSW 6.9 mph - N/A   Clear
10:55 AM 50.0 °F - 35.6 °F 58% 29.83 in 10.0 mi West 4.6 mph - N/A   Clear
11:35 AM 53.6 °F - 33.8 °F 47% 29.83 in 10.0 mi West 8.1 mph - N/A   Clear
11:55 AM 53.6 °F - 33.8 °F 47% 29.83 in 10.0 mi WNW 6.9 mph - N/A   Clear
12:15 PM 55.4 °F - 33.8 °F 44% 29.82 in 10.0 mi Calm Calm - N/A   Clear
12:35 PM 55.4 °F - 33.8 °F 44% 29.81 in 10.0 mi NW 5.8 mph - N/A   Clear
12:55 PM 57.2 °F - 33.8 °F 41% 29.80 in 10.0 mi NW 8.1 mph - N/A   Clear
1:15 PM 57.2 °F - 33.8 °F 41% 29.79 in 10.0 mi NW 10.4 mph - N/A   Clear
1:35 PM 59.0 °F - 32.0 °F 36% 29.78 in 10.0 mi West 15.0 mph 18.4 mph N/A   Clear
1:55 PM 59.0 °F - 32.0 °F 36% 29.78 in 10.0 mi WNW 12.7 mph 16.1 mph N/A   Clear
2:15 PM 59.0 °F - 32.0 °F 36% 29.76 in 10.0 mi West 10.4 mph 17.3 mph N/A   Clear
2:35 PM 60.8 °F - 32.0 °F 34% 29.76 in 10.0 mi WNW 10.4 mph 19.6 mph N/A   Clear
2:55 PM 60.8 °F - 32.0 °F 34% 29.75 in 10.0 mi NW 9.2 mph 17.3 mph N/A   Clear
3:15 PM 60.8 °F - 32.0 °F 34% 29.75 in 10.0 mi WNW 10.4 mph - N/A   Clear
3:35 PM 60.8 °F - 32.0 °F 34% 29.76 in 10.0 mi NW 11.5 mph 18.4 mph N/A   Clear
3:55 PM 60.8 °F - 32.0 °F 34% 29.76 in 10.0 mi West 15.0 mph - N/A   Scattered Clouds
4:15 PM 60.8 °F - 33.8 °F 36% 29.77 in 10.0 mi WNW 11.5 mph 18.4 mph N/A   Scattered Clouds
4:35 PM 60.8 °F - 33.8 °F 36% 29.77 in 10.0 mi West 13.8 mph 18.4 mph N/A   Mostly Cloudy
4:55 PM 59.0 °F - 33.8 °F 39% 29.77 in 10.0 mi NW 10.4 mph 16.1 mph N/A   Mostly Cloudy
5:15 PM 59.0 °F - 35.6 °F 42% 29.78 in 10.0 mi WNW 6.9 mph - N/A   Mostly Cloudy
5:35 PM 59.0 °F - 35.6 °F 42% 29.78 in 10.0 mi NW 6.9 mph - N/A   Mostly Cloudy
5:55 PM 55.4 °F - 35.6 °F 47% 29.79 in 10.0 mi NW 6.9 mph - N/A   Scattered Clouds
6:15 PM 55.4 °F - 37.4 °F 51% 29.79 in 10.0 mi NW 6.9 mph - N/A   Scattered Clouds
6:35 PM 55.4 °F - 37.4 °F 51% 29.80 in 10.0 mi Calm Calm - N/A   Clear
6:55 PM 53.6 °F - 37.4 °F 54% 29.81 in 10.0 mi Calm Calm - N/A   Clear
7:15 PM 51.8 °F - 37.4 °F 58% 29.82 in 10.0 mi Calm Calm - N/A   Clear
7:35 PM 50.0 °F - 37.4 °F 62% 29.83 in 10.0 mi Calm Calm - N/A   Clear
7:55 PM 46.4 °F - 37.4 °F 71% 29.83 in 10.0 mi Calm Calm - N/A   Clear
8:15 PM 44.6 °F - 37.4 °F 76% 29.84 in 10.0 mi Calm Calm - N/A   Clear
8:35 PM 44.6 °F - 37.4 °F 76% 29.84 in 10.0 mi Calm Calm - N/A   Clear
8:55 PM 44.6 °F - 37.4 °F 76% 29.84 in 10.0 mi Calm Calm - N/A   Clear
9:15 PM 42.8 °F - 37.4 °F 81% 29.85 in 10.0 mi Calm Calm - N/A   Clear
9:35 PM 42.8 °F 41.1 °F 37.4 °F 81% 29.85 in 10.0 mi SSW 3.5 mph - N/A   Clear
10:15 PM 42.8 °F - 37.4 °F 81% 29.86 in 10.0 mi Calm Calm - N/A   Clear
10:35 PM 44.6 °F - 35.6 °F 71% 29.87 in 10.0 mi Calm Calm - N/A   Clear
10:55 PM 42.8 °F 41.1 °F 35.6 °F 76% 29.87 in 10.0 mi SW 3.5 mph - N/A   Clear
11:15 PM 41.0 °F - 35.6 °F 81% 29.88 in 10.0 mi Calm Calm - N/A   Clear
11:35 PM 42.8 °F - 35.6 °F 76% 29.88 in 10.0 mi Calm Calm - N/A   Clear
11:55 PM 42.8 °F - 35.6 °F 76% 29.88 in 10.0 mi Calm Calm - N/A   Clear